Regional Weather Roundup
Issued by NWS

Home | Current Version | Previous Version | Text Only | Print | Product List | Glossary On
Versions: 1 2 3 4 5 6 7 8 9 10 11 12 13 14 15 16 17 18 19 20 21 22 23 24 25 26 27 28 29 30 31 32 33 34 35 36 37 38 39 40 41 42 43 44 45 46 47 48 49 50
000
ASUS43 KDTX 231510
RWRMI
MICHIGAN HOURLY REGIONAL WEATHER ROUNDUP
NATIONAL WEATHER SERVICE DETROIT/PONTIAC MI
1100 AM EDT SAT MAY 23 2015

NOTE: "FAIR" INDICATES FEW OR NO CLOUDS BELOW 12,000 FEET WITH NO
SIGNIFICANT WEATHER AND/OR OBSTRUCTION TO VISIBILITY.

MIZ047>049-052>055-059>063-066>070-074>076-081>083-231600-
SOUTHEAST LOWER MICHIGAN

CITY           SKY/WX    TMP DP  RH WIND       PRES   REMARKS
ADRIAN         SUNNY     65  36  34 S7        30.40F
ALMA           SUNNY     65  38  36 S7        30.37F
ANN ARBOR      SUNNY     64  40  41 SW9       30.40F
BAD AXE        SUNNY     62  29  29 SW13      30.37F
CARO           SUNNY     64  36  34 SW7       30.37S
DETROIT CITY   SUNNY     63  39  41 S7        30.40F
DETROIT        MOSUNNY   66  42  41 S8        30.41F
FLINT          SUNNY     67  35  30 S12       30.38F
GROSSE ILE     SUNNY     61  46  59 S6        30.39F
HILLSDALE      SUNNY     65  39  38 S7        30.39S
HOWELL         SUNNY     65  38  36 S7        30.39S

CITY           SKY/WX    TMP DP  RH WIND       PRES   REMARKS
JACKSON        SUNNY     66  38  35 VRB5      30.39S
LAMBERTVILLE   SUNNY     68  34  28 S7        30.40S
LANSING        SUNNY     66  38  35 SW13      30.38F
LAPEER         FAIR      65  31  28 SW12      30.38S
MASON          SUNNY     63  35  35 S6        30.38S
MONROE         SUNNY     66  37  34 SW5       30.38F
MT. CLEMENS    MOSUNNY   60  47  62 SE5       30.38F
PONTIAC        MOSUNNY   63  37  38 S12       30.39F
PORT HOPE        N/A     62  30  29 SW9       30.35F
PORT HURON     SUNNY     63  39  42 S8        30.40F
TRI CITIES     SUNNY     64  39  39 SW10      30.37F
MIDLAND        FAIR      64  38  37 SW8       30.36F
TROY           SUNNY     64  35  33 SW5       30.40F
SAGINAW HB     SUNNY     64  36  34 SW9       30.36F
$$
MIZ043>046-050>051-056>058-064>065-071>073-077>080-231600-
SOUTHWEST LOWER MICHIGAN

CITY           SKY/WX    TMP DP  RH WIND       PRES   REMARKS
BATTLE CREEK   SUNNY     66  34  30 S7        30.39S
BENTON HARBOR  SUNNY     67  37  33 SE8       30.36F
BIG RAPIDS     SUNNY     65  25  22 SW9G17    30.36S
COLDWATER      SUNNY     65  39  38 SW3       30.38F
FREMONT        FAIR      64  30  27 S5        30.36S
HOLLAND        SUNNY     69  35  28 S12       30.37S
GRAND RAPIDS   MOSUNNY   67  35  30 S9        30.37S
IONIA          FAIR      67  33  27 S8        30.37R
KALAMAZOO      SUNNY     66  35  31 S8        30.39S
LUDINGTON      SUNNY     62  35  36 SW10      30.36R
MARSHALL       SUNNY     66  37  33 S7        30.38S
MOUNT PLEASANT SUNNY     66  35  32 S6        30.36S
MUSKEGON       SUNNY     66  27  23 S14G22    30.37R
SOUTH HAVEN    SUNNY     67  32  26 SE5       30.37S
$$
MIZ016>042-231600-
NORTHERN LOWER MICHIGAN

CITY           SKY/WX    TMP DP  RH WIND       PRES   REMARKS
ALPENA         SUNNY     65  29  25 SW14G22   30.29F
BEAVER ISLAND  SUNNY     57  31  37 SW16G25   30.28S
BELLAIRE       SUNNY     64  29  27 SW9       30.31F
CADILLAC       SUNNY     65  32  29 SW14      30.33S
CHARLEVOIX     SUNNY     62  30  30 SW17G26   30.32S
FRANKFORT      SUNNY     62  23  22 SW8       30.35S
GAYLORD        SUNNY     64  28  25 W18G25    30.31F
GRAYLING       SUNNY     66  32  28 SW10      30.33S
HARBOR SPRINGS SUNNY     61  30  30 W8        30.29F
HOUGHTON LAKE  SUNNY     62  31  31 SW9       30.35F
MANISTEE       SUNNY     64  36  34 SW8       30.35F
OSCODA         SUNNY     64  32  30 SW14      30.32F
PELLSTON       SUNNY     63  24  22 W22G33    30.28F
ROGERS CITY    SUNNY     67  33  28 SW17G23   30.27F
TRAVERSE CITY  MOSUNNY   66  31  27 W12       30.31F
$$
MIZ007>008-015-231600-
EASTERN UPPER MICHIGAN

CITY           SKY/WX    TMP DP  RH WIND       PRES   REMARKS
KINROSS        MOSUNNY   61  34  36 SW12G25   30.23F
MACKINAC ISLAN SUNNY     56  34  43 W15G23    30.26F
NEWBERRY       SUNNY     63  38  39 SW14G20   30.22F
S. S. MARIE    PTSUNNY   63  37  38 S9        30.20F
MUNISING         N/A     72  36  26 SW12G22   30.18F
$$
MIZ004>006-011>014-085-231600-
CENTRAL UPPER MICHIGAN

CITY           SKY/WX    TMP DP  RH WIND       PRES   REMARKS
MANISTIQUE     SUNNY     51  40  66 SW9G17    30.25F
ESCANABA       SUNNY     61  43  51 S12       30.24F
MENOMINEE      SUNNY     66  37  34 SW10G17   30.27F
SAWYER-GWINN   SUNNY     68  34  28 W18G24    30.21F
$$
MIZ001>003-009>011-084-231600-
WESTERN UPPER MICHIGAN

CITY           SKY/WX    TMP DP  RH WIND       PRES   REMARKS
IRON MOUNTAIN  SUNNY     71  35  26 W9        30.23F
HOUGHTON       MOSUNNY   70  35  27 W29G37    30.17S
COPPER HARBOR    N/A     73  34  23 NW16G26   30.12S
IRONWOOD       SUNNY     70  39  32 W13       30.20S
$$

ABBREVIATIONS USED IN REMARKS
   TC - TEMPERATURE IN CELSIUS
  WCI - WIND CHILL INDEX
   HX - HEAT INDEX
  VSB - VISIBILITY



USA.gov is the U.S. government's official web portal to all federal, state and local government web resources and services.